Retour au catalogue

STARLINK-36294

ActifCommunicationsVLEO
NORAD 68531·PAYLOAD·🇺🇸 United States

Lancé Mar 30, 2026 depuis Cape Canaveral Space Force Station

Loading…

Prochains Passages (prochaines 24 heures)

TLE

FraisSource: CelesTrak SupGP

Époque: Sep 14, 2026, 23:22 UTC

1 68531C 26068Z   26257.97409722  .00031174  00000+0  92151-3 0  2570
2 68531  53.1594 327.6811 0001222  81.2258 102.8214 15.34359325    12

Suivez STARLINK-36294 en temps réel avec AllMySat

Download on the App Store